This is the latest recevied weather packets stored in our database for station/object YO2LDK-13. If no packets are shown the sender has not sent any weather packets the latest 10 day(s).
| Time | Temp. | Humidity | Pressure | Rain* | Wind** | Luminosity | Snow |
|---|---|---|---|---|---|---|---|
| 1777552232 | 16.11° C | 30% | 1013.5 hPa | 0 mm | - | 737 W/m² | - |
| 1777551920 | 15° C | 31% | 1013.9 hPa | 0 mm | - | 771 W/m² | - |
| 1777551620 | 14.44° C | 32% | 1013.9 hPa | 0 mm | - | 768 W/m² | - |
| 1777549820 | 16.11° C | 30% | 1013.9 hPa | 0 mm | - | 862 W/m² | - |
| 1777547719 | 15.56° C | 32% | 1013.9 hPa | 0 mm | - | 120 W/m² | - |
| 1777547420 | 15.56° C | 32% | 1014.2 hPa | 0 mm | - | 108 W/m² | - |
| 1777546219 | 15° C | 34% | 1014.2 hPa | 0 mm | - | 88 W/m² | - |
| 1777545319 | 14.44° C | 34% | 1014.2 hPa | 0 mm | - | 81 W/m² | - |
| 1777545020 | 14.44° C | 33% | 1014.6 hPa | 0 mm | - | 84 W/m² | - |
| 1777544719 | 15° C | 33% | 1014.2 hPa | 0 mm | - | 83 W/m² | - |
| 1777544419 | 14.44° C | 35% | 1014.2 hPa | 0 mm | - | 717 W/m² | - |
| 1777544119 | 14.44° C | 35% | 1014.6 hPa | 0 mm | - | 75 W/m² | - |
| 1777543819 | 15° C | 35% | 1014.2 hPa | 0 mm | - | 77 W/m² | - |
| 1777543519 | 15° C | 35% | 1014.6 hPa | 0 mm | - | 76 W/m² | - |
| 1777543219 | 14.44° C | 34% | 1014.2 hPa | 0 mm | - | 62 W/m² | - |
| 1777542919 | 14.44° C | 35% | 1014.6 hPa | 0 mm | - | 70 W/m² | - |
| 1777542620 | 15° C | 35% | 1014.6 hPa | 0 mm | - | 77 W/m² | - |
| 1777542319 | 14.44° C | 35% | 1014.6 hPa | 0 mm | - | 68 W/m² | - |
| 1777542020 | 13.89° C | 36% | 1014.6 hPa | 0 mm | - | 67 W/m² | - |
| 1777541719 | 13.89° C | 36% | 1014.9 hPa | 0 mm | - | 74 W/m² | - |
| 1777541419 | 13.33° C | 36% | 1014.9 hPa | 0 mm | - | 64 W/m² | - |
| 1777541120 | 13.89° C | 36% | 1014.6 hPa | 0 mm | - | 66 W/m² | - |
| 1777540819 | 13.89° C | 37% | 1014.9 hPa | 0 mm | - | 64 W/m² | - |
| 1777540520 | 13.33° C | 36% | 1014.6 hPa | 0 mm | - | 65 W/m² | - |
| 1777540219 | 13.33° C | 37% | 1014.6 hPa | 0 mm | - | 65 W/m² | - |
* Rain latest hour (hover to see other rain measurements)
** Current wind speed in m/s (hover to see current wind gust speed)